Time,TemperatureF,DewpointF,PressureIn,WindDirection,WindDirectionDegrees,WindSpeedMPH,WindSpeedGustMPH,Humidity,HourlyPrecipIn,Conditions,Clouds,dailyrainin,SoftwareType,DateUTC
2013-05-13 00:03:00,-999.0,-99.9,30.08,WNW,298,5.0,6.0,-999,-99.99,,,-99.99,,2013-05-13 04:03:00,
2013-05-13 00:12:00,-999.0,-99.9,30.08,NNW,328,3.0,6.0,-999,-99.99,,,-99.99,,2013-05-13 04:12:00,
2013-05-13 00:23:00,-999.0,-99.9,30.08,WNW,293,4.0,6.0,-999,-99.99,,,-99.99,,2013-05-13 04:23:00,
2013-05-13 00:42:00,75.0,-99.9,30.08,North,-999,-999.0,-999.0,-999,-99.99,,,-99.99,,2013-05-13 04:42:00,
2013-05-13 00:53:00,75.0,-99.9,30.08,North,-999,-999.0,-999.0,-999,-99.99,,,-99.99,,2013-05-13 04:53:00,
2013-05-13 01:12:00,-999.0,-99.9,30.08,NW,304,4.0,7.0,-999,-99.99,,,-99.99,,2013-05-13 05:12:00,
2013-05-13 01:22:00,-999.0,-99.9,30.07,NW,315,4.0,5.0,-999,-99.99,,,-99.99,,2013-05-13 05:22:00,
2013-05-13 01:32:00,75.0,-99.9,30.07,North,-999,-999.0,-999.0,-999,-99.99,,,-99.99,,2013-05-13 05:32:00,
2013-05-13 01:42:00,-999.0,-99.9,30.06,NW,310,5.0,6.0,-999,-99.99,,,-99.99,,2013-05-13 05:42:00,
2013-05-13 01:52:00,75.0,-99.9,30.06,North,-999,-999.0,-999.0,-999,-99.99,,,-99.99,,2013-05-13 05:52:00,
2013-05-13 02:01:00,74.0,-99.9,30.05,North,-999,-999.0,-999.0,-999,-99.99,,,-99.99,,2013-05-13 06:01:00,
2013-05-13 02:22:00,-999.0,-99.9,30.06,NW,309,5.0,8.0,-999,-99.99,,,-99.99,,2013-05-13 06:22:00,
2013-05-13 02:42:00,-999.0,-99.9,30.06,WNW,283,3.0,4.0,-999,-99.99,,,-99.99,,2013-05-13 06:42:00,
2013-05-13 02:52:00,74.0,-99.9,30.06,North,-999,-999.0,-999.0,-999,-99.99,,,-99.99,,2013-05-13 06:52:00,
2013-05-13 03:01:00,74.0,-99.9,30.05,North,-999,-999.0,-999.0,-999,-99.99,,,-99.99,,2013-05-13 07:01:00,
2013-05-13 03:22:00,-999.0,-99.9,30.06,NW,309,6.0,8.0,-999,-99.99,,,-99.99,,2013-05-13 07:22:00,
2013-05-13 03:32:00,74.0,-99.9,30.05,North,-999,-999.0,-999.0,-999,-99.99,,,-99.99,,2013-05-13 07:32:00,
2013-05-13 03:42:00,74.0,-99.9,30.05,North,-999,-999.0,-999.0,-999,-99.99,,,-99.99,,2013-05-13 07:42:00,
2013-05-13 03:52:00,-999.0,-99.9,30.05,NW,308,4.0,8.0,-999,-99.99,,,-99.99,,2013-05-13 07:52:00,
2013-05-13 04:11:00,-999.0,-99.9,30.05,NW,310,5.0,7.0,-999,-99.99,,,-99.99,,2013-05-13 08:11:00,
2013-05-13 04:22:00,74.0,-99.9,30.05,North,-999,-999.0,-999.0,-999,-99.99,,,-99.99,,2013-05-13 08:22:00,
2013-05-13 04:32:00,-999.0,-99.9,30.06,WNW,303,6.0,8.0,-999,-99.99,,,-99.99,,2013-05-13 08:32:00,
2013-05-13 04:42:00,-999.0,-99.9,30.05,NW,314,3.0,5.0,-999,-99.99,,,-99.99,,2013-05-13 08:42:00,
2013-05-13 04:52:00,-999.0,-99.9,30.05,NNW,343,4.0,5.0,-999,-99.99,,,-99.99,,2013-05-13 08:52:00,
2013-05-13 05:01:00,-999.0,-99.9,30.05,NNW,341,4.0,6.0,-999,-99.99,,,-99.99,,2013-05-13 09:01:00,
2013-05-13 05:22:00,73.0,-99.9,30.05,North,-999,-999.0,-999.0,-999,-99.99,,,-99.99,,2013-05-13 09:22:00,
2013-05-13 05:33:00,-999.0,-99.9,30.05,NNW,340,3.0,5.0,-999,-99.99,,,-99.99,,2013-05-13 09:33:00,
2013-05-13 05:42:00,-999.0,-99.9,30.06,NNW,339,5.0,6.0,-999,-99.99,,,-99.99,,2013-05-13 09:42:00,
2013-05-13 05:52:00,73.0,-99.9,30.05,North,-999,-999.0,-999.0,-999,-99.99,,,-99.99,,2013-05-13 09:52:00,
2013-05-13 06:03:00,-999.0,-99.9,30.06,NNW,334,3.0,5.0,-999,-99.99,,,-99.99,,2013-05-13 10:03:00,
2013-05-13 06:22:00,-999.0,-99.9,30.05,NW,322,4.0,6.0,-999,-99.99,,,-99.99,,2013-05-13 10:22:00,
2013-05-13 06:33:00,-999.0,-99.9,30.06,NW,308,4.0,6.0,-999,-99.99,,,-99.99,,2013-05-13 10:33:00,
2013-05-13 06:43:00,-999.0,-99.9,30.05,NNW,343,3.0,4.0,-999,-99.99,,,-99.99,,2013-05-13 10:43:00,
2013-05-13 06:53:00,-999.0,-99.9,30.06,NNW,333,4.0,4.0,-999,-99.99,,,-99.99,,2013-05-13 10:53:00,
2013-05-13 07:03:00,74.0,-99.9,30.06,North,-999,-999.0,-999.0,-999,-99.99,,,-99.99,,2013-05-13 11:03:00,
2013-05-13 07:22:00,-999.0,-99.9,30.07,NW,318,4.0,6.0,-999,-99.99,,,-99.99,,2013-05-13 11:22:00,
2013-05-13 07:42:00,-999.0,-99.9,30.07,NW,315,4.0,5.0,-999,-99.99,,,-99.99,,2013-05-13 11:42:00,
2013-05-13 07:52:00,-999.0,-99.9,30.08,NW,307,5.0,7.0,-999,-99.99,,,-99.99,,2013-05-13 11:52:00,
2013-05-13 08:02:00,-999.0,-99.9,30.09,NW,304,6.0,8.0,-999,-99.99,,,-99.99,,2013-05-13 12:02:00,
2013-05-13 08:12:00,-999.0,-99.9,30.09,NW,314,5.0,7.0,-999,-99.99,,,-99.99,,2013-05-13 12:12:00,
2013-05-13 08:21:00,74.0,-99.9,30.09,North,-999,-999.0,-999.0,-999,-99.99,,,-99.99,,2013-05-13 12:21:00,
2013-05-13 08:32:00,74.0,-99.9,30.10,North,-999,-999.0,-999.0,-999,-99.99,,,-99.99,,2013-05-13 12:32:00,
2013-05-13 08:42:00,74.0,-99.9,30.10,North,-999,-999.0,-999.0,-999,-99.99,,,-99.99,,2013-05-13 12:42:00,
2013-05-13 08:52:00,74.0,-99.9,30.11,North,-999,-999.0,-999.0,-999,-99.99,,,-99.99,,2013-05-13 12:52:00,
2013-05-13 09:01:00,-999.0,-99.9,30.11,WNW,301,8.0,10.0,-999,-99.99,,,-99.99,,2013-05-13 13:01:00,
2013-05-13 09:11:00,-999.0,-99.9,30.11,WNW,302,6.0,9.0,-999,-99.99,,,-99.99,,2013-05-13 13:11:00,
2013-05-13 09:22:00,75.0,-99.9,30.11,North,-999,-999.0,-999.0,-999,-99.99,,,-99.99,,2013-05-13 13:22:00,
2013-05-13 09:32:00,75.0,-99.9,30.12,North,-999,-999.0,-999.0,-999,-99.99,,,-99.99,,2013-05-13 13:32:00,
2013-05-13 09:42:00,75.0,-99.9,30.12,North,-999,-999.0,-999.0,-999,-99.99,,,-99.99,,2013-05-13 13:42:00,
2013-05-13 09:52:00,75.0,-99.9,30.12,North,-999,-999.0,-999.0,-999,-99.99,,,-99.99,,2013-05-13 13:52:00,
2013-05-13 10:02:00,75.0,-99.9,30.12,North,-999,-999.0,-999.0,-999,-99.99,,,-99.99,,2013-05-13 14:02:00,
2013-05-13 10:11:00,-999.0,-99.9,30.13,North,8,8.0,10.0,-999,-99.99,,,-99.99,,2013-05-13 14:11:00,
2013-05-13 10:22:00,75.0,-99.9,30.13,North,-999,-999.0,-999.0,-999,-99.99,,,-99.99,,2013-05-13 14:22:00,
2013-05-13 10:32:00,-999.0,-99.9,30.13,NNE,17,7.0,9.0,-999,-99.99,,,-99.99,,2013-05-13 14:32:00,
2013-05-13 10:42:00,-999.0,-99.9,30.13,North,8,7.0,9.0,-999,-99.99,,,-99.99,,2013-05-13 14:42:00,
2013-05-13 10:52:00,-999.0,-99.9,30.14,North,358,6.0,9.0,-999,-99.99,,,-99.99,,2013-05-13 14:52:00,
2013-05-13 11:01:00,-999.0,-99.9,30.15,North,11,8.0,11.0,-999,-99.99,,,-99.99,,2013-05-13 15:01:00,
2013-05-13 11:11:00,-999.0,-99.9,30.15,North,11,8.0,11.0,-999,-99.99,,,-99.99,,2013-05-13 15:11:00,
2013-05-13 11:22:00,-999.0,-99.9,30.15,North,11,8.0,11.0,-999,-99.99,,,-99.99,,2013-05-13 15:22:00,
2013-05-13 11:32:00,-999.0,-99.9,30.15,North,11,8.0,11.0,-999,-99.99,,,-99.99,,2013-05-13 15:32:00,
2013-05-13 12:22:00,77.0,-99.9,30.16,North,10,7.0,11.0,-999,-99.99,,,-99.99,,2013-05-13 16:22:00,
2013-05-13 14:13:00,-999.0,-99.9,30.15,North,6,4.0,7.0,-999,-99.99,,,-99.99,,2013-05-13 18:13:00,
2013-05-13 14:52:00,-999.0,-99.9,30.14,NNE,14,9.0,14.0,-999,-99.99,,,-99.99,,2013-05-13 18:52:00,
2013-05-13 15:12:00,-999.0,-99.9,30.14,North,359,9.0,15.0,-999,-99.99,,,-99.99,,2013-05-13 19:12:00,
2013-05-13 15:22:00,82.0,-99.9,30.13,North,-999,-999.0,-999.0,-999,-99.99,,,-99.99,,2013-05-13 19:22:00,
2013-05-13 15:44:00,-999.0,-99.9,30.14,North,356,11.0,15.0,-999,-99.99,,,-99.99,,2013-05-13 19:44:00,
2013-05-13 15:53:00,81.0,-99.9,30.13,North,-999,-999.0,-999.0,-999,-99.99,,,-99.99,,2013-05-13 19:53:00,
2013-05-13 16:02:00,-999.0,-99.9,30.13,North,3,10.0,18.0,-999,-99.99,,,-99.99,,2013-05-13 20:02:00,
2013-05-13 16:23:00,79.0,-99.9,30.13,North,-999,-999.0,-999.0,-999,-99.99,,,-99.99,,2013-05-13 20:23:00,
2013-05-13 16:34:00,79.0,-99.9,30.13,North,-999,-999.0,-999.0,-999,-99.99,,,-99.99,,2013-05-13 20:34:00,
2013-05-13 16:44:00,-999.0,-99.9,30.13,NNW,337,12.0,18.0,-999,-99.99,,,-99.99,,2013-05-13 20:44:00,
2013-05-13 16:53:00,-999.0,-99.9,30.12,NW,320,11.0,17.0,-999,-99.99,,,-99.99,,2013-05-13 20:53:00,
2013-05-13 17:03:00,-999.0,-99.9,30.12,NNW,343,10.0,20.0,-999,-99.99,,,-99.99,,2013-05-13 21:03:00,
2013-05-13 17:14:00,-999.0,-99.9,30.12,North,2,10.0,15.0,-999,-99.99,,,-99.99,,2013-05-13 21:14:00,
2013-05-13 17:23:00,78.0,-99.9,30.12,North,-999,-999.0,-999.0,-999,-99.99,,,-99.99,,2013-05-13 21:23:00,
2013-05-13 17:34:00,-999.0,-99.9,30.12,NW,318,11.0,16.0,-999,-99.99,,,-99.99,,2013-05-13 21:34:00,
2013-05-13 17:44:00,79.0,-99.9,30.12,North,-999,-999.0,-999.0,-999,-99.99,,,-99.99,,2013-05-13 21:44:00,
2013-05-13 17:53:00,-999.0,-99.9,30.12,North,357,9.0,15.0,-999,-99.99,,,-99.99,,2013-05-13 21:53:00,
2013-05-13 18:03:00,-999.0,-99.9,30.12,WNW,300,12.0,18.0,-999,-99.99,,,-99.99,,2013-05-13 22:03:00,
2013-05-13 18:12:00,-999.0,-99.9,30.12,NW,326,11.0,17.0,-999,-99.99,,,-99.99,,2013-05-13 22:12:00,
2013-05-13 18:23:00,-999.0,-99.9,30.12,NW,320,11.0,16.0,-999,-99.99,,,-99.99,,2013-05-13 22:23:00,
2013-05-13 18:43:00,-999.0,-99.9,30.11,NW,326,10.0,16.0,-999,-99.99,,,-99.99,,2013-05-13 22:43:00,
2013-05-13 18:52:00,-999.0,-99.9,30.11,NNW,337,10.0,13.0,-999,-99.99,,,-99.99,,2013-05-13 22:52:00,
2013-05-13 19:02:00,77.0,-99.9,30.12,North,-999,-999.0,-999.0,-999,-99.99,,,-99.99,,2013-05-13 23:02:00,
2013-05-13 19:34:00,75.0,-99.9,30.12,North,-999,-999.0,-999.0,-999,-99.99,,,-99.99,,2013-05-13 23:34:00,
2013-05-13 19:42:00,-999.0,-99.9,30.12,NNW,329,12.0,17.0,-999,-99.99,,,-99.99,,2013-05-13 23:42:00,
2013-05-13 19:54:00,-999.0,-99.9,30.12,NW,326,10.0,15.0,-999,-99.99,,,-99.99,,2013-05-13 23:54:00,
2013-05-13 20:03:00,-999.0,-99.9,30.13,NNW,331,10.0,14.0,-999,-99.99,,,-99.99,,2013-05-14 00:03:00,
2013-05-13 20:22:00,-999.0,-99.9,30.14,NNW,329,8.0,16.0,-999,-99.99,,,-99.99,,2013-05-14 00:22:00,
2013-05-13 20:32:00,-999.0,-99.9,30.14,NNW,332,6.0,11.0,-999,-99.99,,,-99.99,,2013-05-14 00:32:00,
2013-05-13 20:42:00,-999.0,-99.9,30.14,NNW,328,4.0,10.0,-999,-99.99,,,-99.99,,2013-05-14 00:42:00,
2013-05-13 20:52:00,-999.0,-99.9,30.15,NW,309,6.0,8.0,-999,-99.99,,,-99.99,,2013-05-14 00:52:00,
2013-05-13 21:02:00,72.0,-99.9,30.14,North,-999,-999.0,-999.0,-999,-99.99,,,-99.99,,2013-05-14 01:02:00,
2013-05-13 21:11:00,-999.0,-99.9,30.15,NNW,331,8.0,10.0,-999,-99.99,,,-99.99,,2013-05-14 01:11:00,
2013-05-13 21:21:00,72.0,-99.9,30.15,North,-999,-999.0,-999.0,-999,-99.99,,,-99.99,,2013-05-14 01:21:00,
2013-05-13 21:32:00,-999.0,-99.9,30.15,NNW,335,7.0,10.0,-999,-99.99,,,-99.99,,2013-05-14 01:32:00,
2013-05-13 21:43:00,-999.0,-99.9,30.15,NNW,339,7.0,9.0,-999,-99.99,,,-99.99,,2013-05-14 01:43:00,
2013-05-13 21:53:00,-999.0,-99.9,30.16,NNW,342,6.0,9.0,-999,-99.99,,,-99.99,,2013-05-14 01:53:00,
2013-05-13 22:03:00,-999.0,-99.9,30.15,NNW,340,7.0,10.0,-999,-99.99,,,-99.99,,2013-05-14 02:03:00,
2013-05-13 22:12:00,-999.0,-99.9,30.15,NNW,337,5.0,10.0,-999,-99.99,,,-99.99,,2013-05-14 02:12:00,
2013-05-13 22:22:00,-999.0,-99.9,30.15,NNW,336,6.0,10.0,-999,-99.99,,,-99.99,,2013-05-14 02:22:00,
2013-05-13 22:32:00,71.0,-99.9,30.16,North,-999,-999.0,-999.0,-999,-99.99,,,-99.99,,2013-05-14 02:32:00,
2013-05-13 22:42:00,-999.0,-99.9,30.16,NNW,337,6.0,9.0,-999,-99.99,,,-99.99,,2013-05-14 02:42:00,
2013-05-13 22:52:00,71.0,-99.9,30.16,North,-999,-999.0,-999.0,-999,-99.99,,,-99.99,,2013-05-14 02:52:00,
2013-05-13 23:01:00,-999.0,-99.9,30.16,NNW,330,6.0,11.0,-999,-99.99,,,-99.99,,2013-05-14 03:01:00,
2013-05-13 23:11:00,-999.0,-99.9,30.16,NNW,337,7.0,13.0,-999,-99.99,,,-99.99,,2013-05-14 03:11:00,
2013-05-13 23:22:00,71.0,-99.9,30.16,North,-999,-999.0,-999.0,-999,-99.99,,,-99.99,,2013-05-14 03:22:00,
2013-05-13 23:33:00,71.0,-99.9,30.17,North,-999,-999.0,-999.0,-999,-99.99,,,-99.99,,2013-05-14 03:33:00,
2013-05-13 23:43:00,71.0,-99.9,30.17,North,-999,-999.0,-999.0,-999,-99.99,,,-99.99,,2013-05-14 03:43:00,
2013-05-13 23:53:00,71.0,-99.9,30.17,North,-999,-999.0,-999.0,-999,-99.99,,,-99.99,,2013-05-14 03:53:00,